Showing default

O3B FM17, 44114

Orbit data source: Space-Track

O3B FM17, 44114 is a payload satellite owned by O3B SES (JE) that was launched on Thu, 04 Apr 2019 UTC via a SOYUZ-ST-B launch vehicle from the French Guiana (FRGUI). Payloads include a variety of satellites, spacecraft, and rockets equipped with specific instruments for various scientific and technological missions. These include communications satellites like Starlink; space stations such as the ISS; scientific satellites like the Hubble; Earth observation satellites from companies like Planet Labs, Umbra, and HawkEye 360; GPS; miniature CubeSats for education and research; and military/defense satellites.

Loading next visibility...
O3B FM17 details
Identifier
44114, 2019-020C
Orbit
Active
Last TLE update16 hours ago
Origin
Flag of JEO3B SES (JE / O3B)
ManufacturerThales Alenia
MissionOperational Commercial Communications
Bus & MotorPRISMA?, LS-400 AOCS?
Mass700 kg wet, ~500 kg dry
Launch date (UTC)
2019-04-04 (6 years ago)
Launch vehicle
SOYUZ-ST-B
Launch site
French Guiana (FRGUI)
Object type
Payload
Rocket body
Debris
Shape & HBRTrap Box + 2 Pan, 12 m
Radar Cross Section21.980 m², Large (>1 m²)

Expand to show TLE details & history

TLE from 16 hours ago
0 O3B FM17
1 44114U 19020C   24361.01357255 -.00000013  00000-0  00000-0 0  9995
2 44114   0.0486  21.0541 0003068 259.1654  79.7474  5.00115062104605
Epoch: 2024-12-26T00:19Z
Definitive object data (Epoch: 2024-12-26T00:19:32.668Z)
Latitude-0.01725°
Longitude-99.88517°
Altitude8,063.596 km
Speed5.255 km/s
True Right ascension00h 00m 00s
True Declination0° 01' 02"
Sunlit
Object was in daylight at TLE epoch
Visualization TLE readout
Latitude0.05286°
Longitude14.32719°
Altitude8,068.683 km
Speed5.253 km/s
Apparent Right ascension06h 40m 24s
Apparent Declination-13° 06' 52"
Sunlit
Object is in daylight
Visualization observer readout
Local Sidereal Time15:36:33
Azimuth290.4° WNW
Elevation-41.67°
Doppler factor1
Orbital elements
Apogee altitude8,073.389 km
Perigee altitude8,064.525 km
Semi-major axis14,447.094 km
Eccentricity0.0003068
Inclination0.0486°
RAAN21.0541°
Arg. of periapsis259.1654°
True anomaly79.782°
Mean anomaly79.7474°
Eccentric anomaly79.7647°
Mean motion1.24989 °/min
BSTARUnknown
Orbital period288.02 mins
Loading maneuver chart data...
Loading historical data...
Loading historical data...
Loading historical data...
Loading historical data...
Loading historical data...
Loading historical data...
Loading historical data...
Other satellites on launch #20 in the year 2019 (2019-04-04 UTC)

O3B FM17 Visibility forecast

Observer location: undefined°, undefined

Span
Click to sort rows by Start time (UTC) header in descending order
Start Az.
Max El. time (UTC)
Max El. Az.
Max El.
End time (UTC)
End Az.
79 mins2024-12-26 17:34:25.614Z232.579° WSW2024-12-26 18:14:25.614Z179.892° S24.318°2024-12-26 18:53:25.614Z128.291° SE
79 mins2024-12-26 23:35:25.614Z231.517° WSW2024-12-27 00:14:25.614Z179.825° S24.348°2024-12-27 00:54:25.614Z127.241° SE
79 mins2024-12-27 05:35:25.614Z231.55° WSW2024-12-27 06:14:25.614Z179.863° S24.423°2024-12-27 06:54:25.614Z127.271° SE
79 mins2024-12-27 11:35:25.614Z231.623° WSW2024-12-27 12:14:25.614Z179.931° S24.392°2024-12-27 12:54:25.614Z127.335° SE
|